[Iaude] MPEC E147: 2024 EB3 [a=0.81,e=0.39,i=33.0,H=24.7]
    mpec at cfa.harvard.edu 
    mpec at cfa.harvard.edu
       
    Mon Mar 11 20:52:08 EDT 2024
    
    
  
M.P.E.C. 2024-E147                               Issued 2024 March 12, 00:50 UT
     The Minor Planet Electronic Circulars contain information on unusual
         minor planets, routine data on comets and natural satellites,
         and occasional editorial announcements.  They are published
    on behalf of Division F of the International Astronomical Union by the
          Minor Planet Center, Smithsonian Astrophysical Observatory,
                          Cambridge, MA 02138, U.S.A.
			  
             Prepared using the Tamkin Foundation Computer Network
                              MPC at CFA.HARVARD.EDU
            URL https://www.minorplanetcenter.net/    ISSN 1523-6714
                                    2024 EB3                                    
Observations:
     K24E03B*KC2024 03 10.66191611 27 52.143+01 52 52.69         17.4 GXEE147O75
     K24E03B KC2024 03 10.66491911 27 49.056+01 55 43.32         17.8 GXEE147O75
     K24E03B KC2024 03 10.66792811 27 45.988+01 58 33.47         17.6 GXEE147O75
     K24E03B 1C2024 03 10.99630 11 22 32.58 +06 56 27.8          17.5 GVEE147C40
     K24E03B 1C2024 03 10.99887 11 22 30.14 +06 58 42.4          18.0 GVEE147C40
     K24E03B 1C2024 03 11.00139 11 22 27.75 +07 00 53.3          17.5 GVEE147C40
     K24E03B 1C2024 03 11.00626 11 22 23.10 +07 05 06.1          17.7 GVEE147C40
     K24E03B 1C2024 03 11.00913 11 22 20.36 +07 07 35.7          18.0 GVEE147C40
     K24E03B 1C2024 03 11.01201 11 22 17.63 +07 10 06.2          17.5 GVEE147C40
     K24E03B 1C2024 03 11.01943 11 22 10.60 +07 16 31.6          18.3 GVEE147C40
     K24E03B 1C2024 03 11.02231 11 22 07.91 +07 19 00.3          18.4 GVEE147C40
     K24E03B 1C2024 03 11.02519 11 22 05.22 +07 21 29.2          18.1 GVEE147C40
     K24E03B 1C2024 03 11.03653 11 21 54.56 +07 31 15.9          18.4 GVEE147C40
     K24E03B 1C2024 03 11.03940 11 21 51.89 +07 33 43.8          18.5 GVEE147C40
     K24E03B 1C2024 03 11.04229 11 21 49.17 +07 36 12.0          18.2 GVEE147C40
     K24E03B 1C2024 03 11.05008 11 21 42.02 +07 42 53.8          18.0 GVEE147C40
     K24E03B 1C2024 03 11.05079 11 21 41.32 +07 43 30.4          17.7 GVEE147C40
     K24E03B 1C2024 03 11.05367 11 21 38.60 +07 45 57.9          17.8 GVEE147C40
     K24E03B 1C2024 03 11.05439 11 21 37.93 +07 46 35.1          18.5 GVEE147C40
     K24E03B  C2024 03 11.18356 11 20 03.73 +09 36 11.2          17.7 VtEE147V27
     K24E03B  C2024 03 11.18648 11 20 00.95 +09 38 36.8          16.8 VtEE147V27
     K24E03B  C2024 03 11.18850 11 19 59.14 +09 40 16.0          17.8 VtEE147V27
     K24E03B  C2024 03 11.19185 11 19 56.00 +09 43 04.4          17.5 VtEE147V27
     K24E03B KC2024 03 11.21299511 19 36.36 +10 00 36.1          18.0 GXEE147858
     K24E03B KC2024 03 11.21587911 19 33.67 +10 02 58.7          17.9 GXEE147858
     K24E03B KC2024 03 11.21876311 19 30.97 +10 05 21.1          17.9 GXEE147858
     K24E03B mC2024 03 11.22056511 19 30.443+10 06 58.21         17.69GVEE147I52
     K24E03B mC2024 03 11.22073411 19 30.292+10 07 06.92         17.84GVEE147I52
     K24E03B mC2024 03 11.22090511 19 30.137+10 07 15.31         17.86GVEE147I52
     K24E03B mC2024 03 11.22107511 19 29.996+10 07 23.20         17.78GVEE147I52
     K24E03B KC2024 03 11.22164711 19 28.28 +10 07 43.4          17.8 GXEE147858
     K24E03B KC2024 03 11.22471211 19 25.42 +10 10 14.6          17.8 GXEE147858
     K24E03B KB2024 03 11.22981 11 19 18.254+10 14 13.56         17.9 GVEE147734
     K24E03B KB2024 03 11.23084 11 19 17.266+10 15 04.25         17.7 GVEE147734
     K24E03B KB2024 03 11.23183 11 19 16.330+10 15 52.63         17.6 GVEE147734
     K24E03B KB2024 03 11.23229 11 19 15.86 +10 16 15.9          17.6 RZEE147H36
     K24E03B KB2024 03 11.23401 11 19 14.23 +10 17 39.9          17.4 RZEE147H36
     K24E03B KB2024 03 11.23573 11 19 12.66 +10 19 05.0          17.6 RZEE147H36
     K24E03B 1C2024 03 11.37390111 17 07.969+12 10 13.55         17.82GVEE147703
     K24E03B 1C2024 03 11.37620211 17 05.845+12 12 00.22         17.91GVEE147703
     K24E03B 1C2024 03 11.37850711 17 03.793+12 13 48.94         18.03GVEE147703
     K24E03B 1C2024 03 11.38080711 17 01.673+12 15 36.72         18.02GVEE147703
     K24E03B KC2024 03 11.53204911 15 12.980+14 10 28.44         18.1 GXEE147O75
     K24E03B KC2024 03 11.53638911 15 09.256+14 13 43.65         18.4 GXEE147O75
     K24E03B KB2024 03 11.80629011 11 32.46 +17 28 05.4          17.9 GXEE147L76
     K24E03B KB2024 03 11.80841511 11 30.68 +17 29 33.0          17.9 GXEE147L76
     K24E03B KB2024 03 11.81053711 11 28.93 +17 31 00.8          18.0 GXEE147L76
     K24E03B KB2024 03 11.81265811 11 27.14 +17 32 29.6          17.9 GXEE147L76
     K24E03B KB2024 03 11.88523 11 10 32.009+18 21 39.89         17.9 GXEE147K74
     K24E03B KB2024 03 11.88903 11 10 28.913+18 24 13.54         17.9 GXEE147K74
     K24E03B KB2024 03 11.89282 11 10 25.817+18 26 47.04         18.1 GXEE147K74
     K24E03B KB2024 03 11.90352 11 10 18.31 +18 34 15.8          17.8 GXEE147K19
     K24E03B KB2024 03 11.90548 11 10 16.76 +18 35 34.4          18.6 GXEE147K19
     K24E03B KB2024 03 11.90748 11 10 15.10 +18 36 54.8          18.0 GXEE147K19
     K24E03B KB2024 03 11.92871111 09 58.91 +18 51 03.1          18.1 GXEE147958
     K24E03B KB2024 03 11.93165511 09 56.51 +18 53 00.9          18.1 GXEE147958
     K24E03B KB2024 03 11.93459111 09 54.14 +18 54 57.7          18.0 GXEE147958
Observer details:
703 Catalina Sky Survey.  Observer H. Groeller.  Measurers T. Beuden, V. F.
    Carvajal, D. Fay, J. B. Fazekas, D. C. Fuls, A. R. Gibbs, A. D. Grauer, H.
    Groeller, J. K. Hogan, R. A. Kowalski, S. M. Larson, G. J. Leonard, D.
    Rankin, R. L. Seaman, F. C. Shelly, K. W. Wierzchos.  0.68-m Schmidt + 10K
    CCD.
734 Farpoint Observatory, Eskridge.  Observers D. Cromer, G. Hug, D. Goodin,
    R. Valentine.  Measurer G. Hug.  0.69-m f/3.54 reflector + CMO.
858 Tebbutt Observatory, Edgewood.  Observer F. B. Zoltowski.  0.51-m f/8.1
    Schmidt-Cassegrain + CCD.
958 Observatoire de Dax.  Observer P. Dupouy.  0.50-m f/4.5 Reflector + CMO.
C40 Kuban State University Astrophysical Observatory.  Observers A. Ivanov, A.
    Barcov, V. Ivanov, V. Lysenko, N. Yakovenko, N. Ivanova, N. Gorbunov, G.
    Kurbatov, P. Shchukin, V. Roshchupko.  Measurer A. Ivanov.  0.51-m f/8
    reflector + CCD.
H36 Sandlot Observatory, Scranton.  Observer G. Hug.  0.56-m f/4.8 reflector +
    CMO.
I52 Steward Observatory, Mt. Lemmon Station.  Observer H. Groeller.  Measurers
    T. Beuden, V. F. Carvajal, D. Fay, J. B. Fazekas, D. C. Fuls, A. R. Gibbs,
    A. D. Grauer, H. Groeller, J. K. Hogan, R. A. Kowalski, S. M. Larson, G.
    J. Leonard, D. Rankin, R. L. Seaman, F. C. Shelly, K. W. Wierzchos.  1.0-m
    prime focus + CCD.
K19 PASTIS Observatory, Banon.  Observer C. Demeautis.  0.28-m f/2.2 reflector
    + CMO.
K74 Muensterschwarzach Observatory, Schwarzach.  Observer C. Gerhard.  0.30-m
    f/3.75 reflector + CMO.
L76 Nomad Observatory, Kochevanchik.  Observer E. Romas.  0.25-m f/4 Newtonian
    + CMO.
O75 ISON-Hureltogoot Observatory.  Observer L. Elenin.  0.40-m f/2.4 reflector
    + CCD.
V27 North Mesa Observatory, Los Alamos.  Observer B. K. Kendrick.  0.25-m f/6
    reflector + CCD.
Orbital elements:
2024 EB3                                                 Earth MOID = 0.0302 AU
Epoch 2024 Mar. 31.0 TT = JDT 2460400.5                 Veres                   
M 146.05351              (2000.0)            P               Q                  
n   1.36178397     Peri.  210.95670     +0.91767535     -0.38671215             
a   0.8061154      Node   170.35993     +0.36987762     +0.91531837             
e   0.3921192      Incl.   33.01665     -0.14512926     -0.11245443             
P   0.72           H   24.73          G   0.15           U   7                  
Residuals in seconds of arc
240310 O75  0.1+  1.9-    240311 V27  0.5+  0.3+    240311 703  0.0   1.1+
240310 O75  0.1-  1.0-    240311 V27  0.5-  0.3+    240311 703  0.4-  0.4-
240310 O75  0.2+  0.9-    240311 V27  0.5+  1.2-    240311 703  0.3+  0.0
240310 C40  0.3-  1.1+    240311 V27  0.1+  0.5+    240311 703  0.1-  0.2-
240310 C40  0.1-  1.6+    240311 858  0.0   0.1+    240311 O75  0.0   0.0
240311 C40  0.1+  1.1+    240311 858  0.0   0.1+    240311 O75  0.9-  0.9-
240311 C40  0.1-  0.2+    240311 858  0.1-  0.0     240311 L76  0.5+  0.5+
240311 C40  0.3-  0.5+    240311 I52  0.1-  0.5-    240311 L76  0.2+  0.1-
240311 C40  0.3-  1.3+    240311 I52  0.0   0.1-    240311 L76  0.3+  0.2-
240311 C40  0.5-  1.4+    240311 I52  0.1+  0.2-    240311 L76  0.2-  0.7+
240311 C40  0.1-  0.8+    240311 I52  0.4+  0.7-    240311 K74  0.4+  0.1-
240311 C40  0.2+  0.5+    240311 858  0.1-  0.0     240311 K74  0.2+  0.0
240311 C40  0.2-  0.9+    240311 858  0.0   0.0     240311 K74  0.1+  0.1+
240311 C40  0.0   0.7+    240311 734  0.2+  0.2-    240311 K19  0.4-  0.6+
240311 C40  0.3-  0.1-    240311 734  0.2-  0.1-    240311 K19  0.3+  0.4+
240311 C40  1.0+  0.7+    240311 734  0.4-  0.1-    240311 K19  0.0   0.3+
240311 C40  0.4+  0.8+    240311 H36  0.1-  0.1+    240311 958  0.5-  0.2-
240311 C40  0.4-  0.2+    240311 H36  0.4-  0.4-    240311 958  0.4-  0.1+
240311 C40  0.5-  0.5+    240311 H36  0.1+  0.3+    240311 958  0.0   0.0
Ephemeris:
2024 EB3                 a,e,i = 0.81, 0.39, 33                  q = 0.4900
Date    TT    R. A. (2000) Decl.     Delta      r    Elong.  Phase     V
2024 02 11    20 24 24.4 -70 12 18   0.2739  0.8682    56.9   107.8    25.6
...
2024 02 26    18 38 48.3 -75 12 23   0.1306  0.9609    73.5    99.0    23.8
...
2024 03 05    14 09 13.0 -68 29 00   0.05599 1.0019    98.8    78.1    21.2
...
2024 03 11    11 22 36.9 +07 01 35   0.03535 1.0287   176.6     3.2    17.9
2024 03 12    11 09 01.7 +19 38 48   0.04088 1.0328   163.0    16.4    18.7
2024 03 13    10 57 42.9 +28 50 45   0.04802 1.0369   152.8    26.0    19.4
...
2024 03 19    10 18 08.7 +50 38 11   0.1028  1.0591   125.9    49.6    21.8
...
2024 03 27    09 58 44.1 +57 11 23   0.1825  1.0836   113.5    57.6    23.3
...
2024 04 11    09 54 21.8 +59 32 48   0.3299  1.1133   101.0    62.1    24.8
M. P. C. Staff               (C) Copyright 2024 MPC           M.P.E.C. 2024-E147
    
    
More information about the Iaude
mailing list